www.pogodaiklimat.ru

Погода и климат >> Архив погоды >> Мексика >> Zamora


ПОГОДА в Zamora

  • Прогноз погоды в Zamora
  • Монитор погоды в Zamora
  • Климат города

АРХИВ ПОГОДЫ в Zamora

Время (UTC), дата Ветер
(напр.,м/с)
 
Видим.   Явления Облачность Т
(С)
Тd
(С)
f
(%)
Тe
(С)
Тes
(С)
Комфортность P
(гПа)
Po
(гПа)
Тmin
(С)
Tmax
(С)
R
(мм)
R24
(мм)
S
(см)
06 14.04 СЗ 2 10 км ясно +20.4 +8.2 45 +22 +22 комфорт 1006.2 845.2 +14.0 +32.8
09 14.04 СВ 1 10 км ясно +17.6 +7.0 50 +19 +19 1008.8 845.6
12 14.04 В 1 10 км ясно +15.0 +7.1 59 +16 +16 1010.9 845.8 +13.4 +32.8
15 14.04 ЮВ 1 18 км мгла {туман} ясно +18.4 +9.2 55 +20 +28 1013.3 846.9
18 14.04 ЮВ 1 18 км мгла {туман} ясно +27.4 +8.2 30 +25 +50 комфорт 1011.1 845.5 +11.2 +29.0
21 14.04 ЮЗ 1 20 км 3/3 600 м
[Cu med, cong]
+30.2 +6.4 22 +29 +42 жарко 1006.9 843.3
00 15.04 Ю 2 20 км 4/4 300 м
[Cu med, cong]
+29.6 +5.9 22 +28 +29 жарко 1003.8 842.5 +11.2 +31.6
03 15.04 ЮЗ 1 10 км ясно +23.4 +6.2 33 +24 +24 комфорт 1007.3 846.4
06 15.04 В 2 10 км ясно +17.0 +6.7 51 +17 +17 1006.5 845.0 +11.2 +31.6
09 15.04 ЮВ 1 10 км ясно +14.0 +7.8 66 +14 +14 1008.9 845.2
12 15.04 ЮЗ 1 10 км ясно +13.0 +5.4 60 +13 +13 1012.4 846.0 +11.8 +31.6
15 15.04 СВ 2 17 км мгла {туман} ясно +21.2 +9.6 47 +23 +30 комфорт 1016.2 848.2
18 15.04 СЗ 2 17 км мгла {туман} 1/1 840 м
[Cu hum]
+28.8 +7.9 27 +28 +47 жарко 1013.8 847.4 +12.0 +30.2
21 15.04 З 5 17 км мгла {туман} 3/3 1000 м
[Cu hum]
+31.4 +10.6 28 +31 +37 жарко 1009.5 845.2
00 16.04 ЮЗ 5 18 км 1/1 600 м
[Cu hum]
+29.0 +10.0 31 +29 +30 жарко 1007.2 845.4 +12.0 +33.0
03 16.04 ЮЗ 1 10 км ясно +24.2 +10.0 41 +25 +25 комфорт 1006.6 846.0
12 16.04 В 1 10 км ясно +14.0 +7.0 63 +14 +14 1015.9 849.5 +12.8 +33.0
15 16.04 В 1 20 км 1/1 1020 м
[Sc diur, vesp]
+19.6 +3.3 34 +21 +29 комфорт 1019.3 851.3
18 16.04 В 1 20 км 3/1 660 м
[Cu med, cong Cs]
+26.6 +9.9 35 +27 +48 жарко 1017.9 850.7 +12.8 +29.0
21 16.04 В 2 20 км 5/4 660 м
[Cu med, cong Cs]
+30.6 +4.9 20 +29 +38 жарко 1011.8 847.4
00 17.04 В 3 20 км 5/5 600 м
[Cu med, cong]
+30.0 +8.5 26 +29 +30 жарко 1006.5 844.9 +12.8 +34.0
03 17.04 В 1 10 км 3/3 600 м
[Cu med, cong]
+25.2 +9.7 38 +26 +26 жарко 1008.1 847.3
06 17.04 штиль 0 10 км ясно +21.8 +5.7 35 +22 +22 комфорт 1009.6 848.3 +12.8 +34.0
09 17.04 В 1 10 км ясно +16.2 +7.7 57 +17 +17 1010.5 848.5
12 17.04 В 1 10 км ясно +14.8 +8.0 64 +15 +15 1013.6 848.2 +12.8 +34.0
15 17.04 СВ 1 18 км мгла {метель} 5/0
[Ci]
+21.0 +10.1 50 +24 +30 комфорт 1016.3 849.5
18 17.04 В 1 18 км мгла {метель} 4/3 600 м
[Cu med, cong Ci]
+29.6 +9.6 29 +29 +46 жарко 1014.0 848.3 +13.4 +31.6
21 17.04 З 3 18 км мгла {метель} 5/5 600 м
[Cu med, cong]
+32.4 +9.9 25 +32 +38 жарко 1008.6 845.4
00 18.04 З 2 18 км мгла 6/6 600 м
[Cu med, cong]
+31.4 +9.5 26 +31 +31 жарко 1007.5 843.9 +13.4 +34.0
03 18.04 З 2 10 км пыль {метель} ясно +25.6 +9.4 36 +26 +26 жарко 1004.5 845.0
06 18.04 З 2 10 км пыль {метель} ясно +22.8 +9.7 43 +24 +24 комфорт 1007.1 846.7 +13.4 +34.0
09 18.04 10 км пыль {метель} ясно +17.0 +8.7 58 1008.6 846.5
12 18.04 СВ 1 10 км пыль {метель} ясно +15.2 +8.1 63 +16 +16 1010.5 846.1 +14.6 +34.0
15 18.04 Ю 1 18 км мгла {туман} ясно +22.2 +10.1 46 +24 +32 комфорт 1014.1 848.1
18 18.04 ЮЗ 2 10 км 1/1 900 м
[Cu hum]
+28.6 +12.3 37 +30 +49 жарко 1013.0 847.6 +14.6 +29.8
21 18.04 С 1 18 км 1/1 750 м
[Cu hum]
+31.6 +13.0 32 +32 +49 жарко 1007.6 844.6
00 19.04 СЗ 3 18 км 1/1 600 м
[Cu hum]
+30.8 +9.7 27 +30 +32 жарко 1004.1 843.5 +14.6 +33.0
03 19.04 З 1 10 км ясно +25.4 +10.8 40 +26 +26 жарко 1003.8 844.2
06 19.04 С 1 10 км ясно +19.4 +10.1 55 +22 +22 комфорт 1006.7 845.9 +14.6 +33.0
09 19.04 В 1 10 км ясно +16.6 +8.6 59 +18 +18 1009.0 846.3
12 19.04 В 1 10 км ясно +15.0 +9.7 71 +16 +16 1012.1 846.9 +14.0 +33.0
15 19.04 Ю 1 18 км мгла {туман} ясно +23.0 +5.1 31 +23 +23 комфорт 1014.9 848.5
18 19.04 СЗ 1 18 км мгла 4/1 600 м
[Cu hum Ci]
+31.4 +8.8 25 +31 +51 опасность
солнечного
удара
1012.3 847.3 +14.2 +32.8
21 19.04 Ю 2 18 км мгла {метель} 5/5 600 м
[Cu hum]
+36.0 +10.2 21 +35 +43 очень
жарко
1007.6 845.4
00 20.04 З 3 18 км мгла {метель} 8/6 600 м
[Cu hum Ci sp]
+35.0 +7.1 18 +33 +33 жарко 1001.6 842.8 +14.2 +36.4
03 20.04 ЮЗ 1 10 км 3/3 800 м
[Cu med, cong]
+27.0 +14.7 47 +30 +30 душно 1002.8 844.7
06 20.04 З 1 10 км 1/1 600 м
[Cu hum]
+23.4 +11.7 48 +26 +26 жарко 1005.4 846.3 +14.2 +36.4
09 20.04 СЗ 1 10 км ясно +20.0 +11.5 58 +23 +23 комфорт 1008.1 846.9
12 20.04 СВ 1 10 км ясно +15.8 +9.9 68 +17 +17 1010.7 846.8 +15.0 +36.4
15 20.04 В 1 18 км мгла {туман} ясно +21.8 +11.9 53 +24 +32 комфорт 1014.5 848.8
18 20.04 С 2 18 км мгла {туман} ясно +29.4 +10.2 30 +29 +50 жарко 1015.1 848.1 +15.0 +30.5
21 20.04 С 1 18 км мгла {туман} 4/4 600 м
[Cu med, cong]
+34.2 +13.5 29 +35 +46 очень
жарко
1007.5 844.9
00 21.04 З 5 18 км 5/5 600 м
[Cu med, cong]
+29.8 +13.6 37 +31 +32 жарко 1003.6 843.4 +15.0 +35.5
03 21.04 В 2 10 км ясно +25.0 +13.3 48 +27 +27 жарко 1004.3 844.8

 

Местоположение метеостанции Zamora (Мексика): широта 19.98 долгота -102.30 высота над уровнем моря 1562 м.

В архиве по умолчанию представлена погода в Zamora за последнюю неделю. Архивные данные за месяц целиком и за предыдущие месяцы, начиная с января 2011 года, Вы можете получить, выбрав интересующий диапазон дат из раскрывающегося списка и нажав кнопку "Ввод!".


*Определитесь, кто Вы:
робот инопланетянин человек

Внимание! Время в таблицах - всемирное. Для получения местного времени необходимо прибавить поправку, которая в Zamora равна -6 ч.

Смотрите также архив погоды в соседних городах и на ближайших метеорологических станциях:

Погода в Ciudad Guzman (Мексика) (119 км)
Погода в Morelia (Мексика) (129 км)
Погода в Guadalajara (Мексика) (129 км)
Погода в Colima (Мексика) (148 км)
Погода в Lagos De Moreno (Мексика) (157 км)
Погода в Guanajuato (Мексика) (161 км)
Погода в Queretaro (Мексика) (209 км)
Погода в Aguascalientes (Мексика) (210 км)
Погода в Manzanillo (Мексика) (234 км)
Погода в Colotlan (Мексика) (256 км)

Пояснения к столбцам:

Ветер - указаны скорость ветра в м/с - средняя за 10 мин, порывы в срок и между сроками (в фигурных скобках) и направление, откуда дует ветер: С - северный, СВ - северо-восточный, В - восточный, ЮВ - юго-восточный, Ю - южный, ЮЗ - юго-западный, З - западный, СЗ - северо-западный.
Видимость - горизонтальная дальность видимости в метрах или километрах. При видимости от 1 до 10 км при отсутствии осадков обычно наблюдается дымка, при ухудшении видимости до 1 км и менее - туман. В сухую погоду видимость может ухудшаться дымом, пылью или мглою.
Явления - указаны атмосферные явления, наблюдавшиеся в срок или в последний час перед сроком; фигурными скобками обозначены явления, наблюдавшиеся между сроками (за 1-3 часа до срока); квадратными скобками обозначены град или гололедные отложения с указанием их диаметра в мм.
Облачность - указаны через наклонную черту общая и нижняя облачность в баллах и высота нижней границы облаков в метрах; квадратными скобками обозначены формы облаков: Ci - перистые, Cs - перисто-слоистые, Cc - перисто-кучевые, Ac - высококучевые, As - высокослоистые, Sc - слоисто-кучевые, Ns - слоисто-дождевые, Cu - кучевые, Cb - кучево-дождевые. Подробнее классификацию облаков см. в Атласе облаков (PDF).
T - Температура воздуха - температура, измеренная на высоте 2 м над землей.
Td - Температура точки росы - температура, при понижении до которой содержащийся в воздухе водяной пар достигнет насыщения.
f - Относительная влажность воздуха - влажноcть воздуха, измеренная на высоте 2 м над землей.
Te - Эффективная температура - температура, которую ощущает одетый по сезону человек в тени. Характеристика душности погоды. При расчете учитывается влияние влажности воздуха и скорости ветра на теплоощущения человека.
Tes - Эффективная температура на солнце - температура, которую ощущает человек, с поправкой на солнечный нагрев. Характеристика знойности погоды. Зависит от высоты солнца над горизонтом, облачности и скорости ветра. Ночью, в пасмурную погоду, а также при ветре 12 м/с и более поправка равна нулю.
P - Атмосферное давление - приведенное к уровню моря атмосферное давление.
Po - Атмосферное давление - измеренное на уровне метеостанции атмосферное давление.
Tmin - Минимальная температура - минимум температуры воздуха на высоте 2 м над землей.
Tmax - Максимальная температура - максимум температуры воздуха на высоте 2 м над землей.
R - Количество осадков - Количество выпавших осадков за период времени, мм. При наведении курсора мыши на число - период времени, за который выпало указанное количество осадков.
R24 - Количество осадков - Количество выпавших осадков за 24 часа, мм.
S - Снежный покров - Высота снежного покрова, см. При наведении курсора мыши на число - состояние снежного покрова и степень покрытия местности в баллах.